Time,TemperatureF,DewpointF,PressureIn,WindDirection,WindDirectionDegrees,WindSpeedMPH,WindSpeedGustMPH,Humidity,HourlyPrecipIn,Conditions,Clouds,dailyrainin,SoftwareType,DateUTC
2013-05-10 00:03:00,57.4,56.3,29.81,North,9,0.0,0.0,96,0.00,,,0.01,Wunderground v.1.15,2013-05-10 05:03:00,
2013-05-10 00:08:00,57.3,56.2,29.81,North,5,0.0,0.0,96,0.13,,,0.02,Wunderground v.1.15,2013-05-10 05:08:00,
2013-05-10 00:13:00,57.1,56.0,29.81,North,360,0.0,0.0,96,0.06,,,0.02,Wunderground v.1.15,2013-05-10 05:13:00,
2013-05-10 00:19:00,57.0,55.9,29.81,North,355,0.0,0.0,96,0.04,,,0.02,Wunderground v.1.15,2013-05-10 05:19:00,
2013-05-10 00:25:00,56.8,56.0,29.81,North,5,0.0,0.0,97,0.00,,,0.02,Wunderground v.1.15,2013-05-10 05:25:00,
2013-05-10 00:35:00,56.2,55.1,29.82,NNE,16,0.0,0.0,96,0.00,,,0.02,Wunderground v.1.15,2013-05-10 05:35:00,
2013-05-10 00:42:00,56.0,54.9,29.82,NNE,13,0.0,0.0,96,0.00,,,0.02,Wunderground v.1.15,2013-05-10 05:42:00,
2013-05-10 00:48:00,56.0,54.9,29.82,North,5,0.0,0.0,96,0.00,,,0.02,Wunderground v.1.15,2013-05-10 05:48:00,
2013-05-10 00:55:00,55.9,54.8,29.82,North,9,0.0,0.0,96,0.00,,,0.02,Wunderground v.1.15,2013-05-10 05:55:00,
2013-05-10 01:00:00,55.8,54.7,29.82,North,9,0.0,0.0,96,0.00,,,0.02,Wunderground v.1.15,2013-05-10 06:00:00,
2013-05-10 01:05:00,55.4,54.3,29.83,North,5,0.0,0.0,96,0.00,,,0.02,Wunderground v.1.15,2013-05-10 06:05:00,
2013-05-10 01:12:00,55.3,54.2,29.82,North,360,0.0,0.0,96,0.00,,,0.02,Wunderground v.1.15,2013-05-10 06:12:00,
2013-05-10 01:17:00,55.1,54.0,29.83,NNE,20,0.0,0.0,96,0.00,,,0.02,Wunderground v.1.15,2013-05-10 06:17:00,
2013-05-10 01:22:00,55.0,53.9,29.83,NNE,21,0.0,0.0,96,0.00,,,0.02,Wunderground v.1.15,2013-05-10 06:22:00,
2013-05-10 01:28:00,54.8,53.7,29.83,NE,47,0.0,0.0,96,0.00,,,0.02,Wunderground v.1.15,2013-05-10 06:28:00,
2013-05-10 01:35:00,54.3,52.9,29.83,ENE,66,0.0,0.0,95,0.00,,,0.03,Wunderground v.1.15,2013-05-10 06:35:00,
2013-05-10 01:42:00,53.9,52.8,29.82,NE,49,0.0,0.0,96,0.06,,,0.04,Wunderground v.1.15,2013-05-10 06:42:00,
2013-05-10 01:48:00,53.7,52.6,29.82,NE,40,0.0,0.0,96,0.06,,,0.04,Wunderground v.1.15,2013-05-10 06:48:00,
2013-05-10 01:56:00,53.5,52.4,29.82,ENE,63,0.0,0.0,96,0.04,,,0.04,Wunderground v.1.15,2013-05-10 06:56:00,
2013-05-10 02:02:00,53.4,52.3,29.82,NNE,25,0.0,0.0,96,0.00,,,0.04,Wunderground v.1.15,2013-05-10 07:02:00,
2013-05-10 02:07:00,53.5,52.4,29.83,NNE,19,0.0,0.0,96,0.00,,,0.04,Wunderground v.1.15,2013-05-10 07:07:00,
2013-05-10 02:12:00,53.5,52.4,29.83,NNE,30,0.0,0.0,96,0.00,,,0.04,Wunderground v.1.15,2013-05-10 07:12:00,
2013-05-10 02:18:00,53.4,52.3,29.83,NNE,21,0.0,0.0,96,0.00,,,0.04,Wunderground v.1.15,2013-05-10 07:18:00,
2013-05-10 02:23:00,53.4,52.3,29.83,North,360,0.0,0.0,96,0.00,,,0.04,Wunderground v.1.15,2013-05-10 07:23:00,
2013-05-10 02:28:00,53.4,52.3,29.83,NNE,19,0.0,0.0,96,0.00,,,0.04,Wunderground v.1.15,2013-05-10 07:28:00,
2013-05-10 02:32:00,53.4,52.3,29.83,NNE,18,0.0,0.0,96,0.00,,,0.04,Wunderground v.1.15,2013-05-10 07:32:00,
2013-05-10 02:37:00,53.4,52.3,29.83,NNE,20,0.0,0.0,96,0.00,,,0.04,Wunderground v.1.15,2013-05-10 07:37:00,
2013-05-10 02:43:00,53.4,52.3,29.83,NNE,14,0.0,0.0,96,0.00,,,0.04,Wunderground v.1.15,2013-05-10 07:43:00,
2013-05-10 02:48:00,53.5,52.4,29.83,NNE,24,0.0,0.0,96,0.00,,,0.04,Wunderground v.1.15,2013-05-10 07:48:00,
2013-05-10 02:53:00,53.5,52.4,29.83,North,5,0.0,0.0,96,0.00,,,0.04,Wunderground v.1.15,2013-05-10 07:53:00,
2013-05-10 02:58:00,53.6,52.5,29.83,North,355,0.0,0.0,96,0.00,,,0.04,Wunderground v.1.15,2013-05-10 07:58:00,
2013-05-10 03:03:00,53.6,52.5,29.83,North,5,0.0,0.0,96,0.00,,,0.04,Wunderground v.1.15,2013-05-10 08:03:00,
2013-05-10 03:08:00,53.5,52.1,29.84,NNE,17,0.0,0.0,95,0.00,,,0.04,Wunderground v.1.15,2013-05-10 08:08:00,
2013-05-10 03:13:00,53.5,52.1,29.84,NNE,21,0.0,0.0,95,0.00,,,0.04,Wunderground v.1.15,2013-05-10 08:13:00,
2013-05-10 03:18:00,53.5,52.1,29.84,NNE,12,0.0,0.0,95,0.00,,,0.04,Wunderground v.1.15,2013-05-10 08:18:00,
2013-05-10 03:23:00,53.5,51.8,29.85,NNE,19,0.0,0.0,94,0.00,,,0.04,Wunderground v.1.15,2013-05-10 08:23:00,
2013-05-10 03:28:00,53.5,51.8,29.85,NNE,12,0.0,0.0,94,0.00,,,0.04,Wunderground v.1.15,2013-05-10 08:28:00,
2013-05-10 03:33:00,53.6,51.9,29.85,North,5,0.0,0.0,94,0.00,,,0.04,Wunderground v.1.15,2013-05-10 08:33:00,
2013-05-10 03:38:00,53.6,51.9,29.85,NNE,23,0.0,0.0,94,0.00,,,0.04,Wunderground v.1.15,2013-05-10 08:38:00,
2013-05-10 03:43:00,53.5,51.8,29.85,North,11,0.0,0.0,94,0.00,,,0.04,Wunderground v.1.15,2013-05-10 08:43:00,
2013-05-10 03:48:00,53.5,51.8,29.85,North,355,0.0,0.0,94,0.00,,,0.04,Wunderground v.1.15,2013-05-10 08:48:00,
2013-05-10 03:53:00,53.4,51.7,29.85,NNE,18,0.0,0.0,94,0.00,,,0.04,Wunderground v.1.15,2013-05-10 08:53:00,
2013-05-10 03:58:00,53.4,51.7,29.85,North,9,0.0,0.0,94,0.00,,,0.04,Wunderground v.1.15,2013-05-10 08:58:00,
2013-05-10 04:03:00,53.3,51.6,29.86,NNE,16,0.0,0.0,94,0.00,,,0.04,Wunderground v.1.15,2013-05-10 09:03:00,
2013-05-10 04:08:00,53.3,51.6,29.86,NNE,33,0.0,0.0,94,0.00,,,0.04,Wunderground v.1.15,2013-05-10 09:08:00,
2013-05-10 04:13:00,53.1,51.4,29.86,North,11,0.0,0.0,94,0.00,,,0.04,Wunderground v.1.15,2013-05-10 09:13:00,
2013-05-10 04:18:00,52.9,51.2,29.86,NE,45,0.0,0.0,94,0.00,,,0.04,Wunderground v.1.15,2013-05-10 09:18:00,
2013-05-10 04:23:00,52.8,50.8,29.86,ENE,66,0.0,0.0,93,0.00,,,0.04,Wunderground v.1.15,2013-05-10 09:23:00,
2013-05-10 04:28:00,52.6,50.6,29.87,NNE,18,0.0,0.0,93,0.00,,,0.04,Wunderground v.1.15,2013-05-10 09:28:00,
2013-05-10 04:33:00,52.6,50.6,29.87,North,5,0.0,0.0,93,0.00,,,0.04,Wunderground v.1.15,2013-05-10 09:33:00,
2013-05-10 04:38:00,52.6,50.6,29.87,NNE,12,0.0,0.0,93,0.00,,,0.04,Wunderground v.1.15,2013-05-10 09:38:00,
2013-05-10 04:43:00,52.5,50.5,29.88,NNE,18,0.0,0.0,93,0.00,,,0.04,Wunderground v.1.15,2013-05-10 09:43:00,
2013-05-10 04:48:00,52.4,50.4,29.88,NNE,19,0.0,0.0,93,0.00,,,0.04,Wunderground v.1.15,2013-05-10 09:48:00,
2013-05-10 04:53:00,52.4,50.4,29.88,North,355,0.0,0.0,93,0.00,,,0.04,Wunderground v.1.15,2013-05-10 09:53:00,
2013-05-10 04:58:00,52.4,50.4,29.88,NNE,17,0.0,0.0,93,0.00,,,0.04,Wunderground v.1.15,2013-05-10 09:58:00,
2013-05-10 05:03:00,52.3,50.3,29.88,North,9,0.0,0.0,93,0.00,,,0.04,Wunderground v.1.15,2013-05-10 10:03:00,
2013-05-10 05:08:00,52.3,50.6,29.88,NNE,14,0.0,0.0,94,0.00,,,0.04,Wunderground v.1.15,2013-05-10 10:08:00,
2013-05-10 05:13:00,52.2,50.5,29.88,North,5,0.0,0.0,94,0.00,,,0.04,Wunderground v.1.15,2013-05-10 10:13:00,
2013-05-10 05:18:00,52.1,50.7,29.88,NNE,12,0.0,0.0,95,0.00,,,0.04,Wunderground v.1.15,2013-05-10 10:18:00,
2013-05-10 05:23:00,52.0,50.6,29.88,North,5,0.0,0.0,95,0.00,,,0.04,Wunderground v.1.15,2013-05-10 10:23:00,
2013-05-10 05:28:00,52.1,50.7,29.89,North,9,0.0,0.0,95,0.00,,,0.04,Wunderground v.1.15,2013-05-10 10:28:00,
2013-05-10 05:33:00,51.9,50.5,29.89,North,5,0.0,0.0,95,0.00,,,0.04,Wunderground v.1.15,2013-05-10 10:33:00,
2013-05-10 05:38:00,51.5,50.1,29.89,NNE,23,0.0,0.0,95,0.00,,,0.04,Wunderground v.1.15,2013-05-10 10:38:00,
2013-05-10 05:43:00,51.2,49.8,29.89,NNE,20,0.0,0.0,95,0.00,,,0.04,Wunderground v.1.15,2013-05-10 10:43:00,
2013-05-10 05:48:00,51.2,49.8,29.89,NNE,26,0.0,0.0,95,0.00,,,0.04,Wunderground v.1.15,2013-05-10 10:48:00,
2013-05-10 05:53:00,51.1,49.4,29.89,North,11,0.0,0.0,94,0.00,,,0.04,Wunderground v.1.15,2013-05-10 10:53:00,
2013-05-10 05:58:00,51.0,49.3,29.89,NNE,17,0.0,0.0,94,0.00,,,0.04,Wunderground v.1.15,2013-05-10 10:58:00,
2013-05-10 06:03:00,51.0,49.3,29.89,NNE,14,0.0,0.0,94,0.00,,,0.04,Wunderground v.1.15,2013-05-10 11:03:00,
2013-05-10 06:08:00,51.0,49.3,29.89,NE,40,0.0,0.0,94,0.00,,,0.04,Wunderground v.1.15,2013-05-10 11:08:00,
2013-05-10 06:13:00,51.0,49.3,29.89,NNE,19,0.0,0.0,94,0.00,,,0.04,Wunderground v.1.15,2013-05-10 11:13:00,
2013-05-10 06:18:00,51.0,49.0,29.89,North,5,0.0,0.0,93,0.00,,,0.04,Wunderground v.1.15,2013-05-10 11:18:00,
2013-05-10 06:23:00,50.9,48.9,29.90,NNE,17,0.0,0.0,93,0.00,,,0.04,Wunderground v.1.15,2013-05-10 11:23:00,
2013-05-10 06:28:00,50.9,48.9,29.90,NNE,19,0.0,0.0,93,0.00,,,0.04,Wunderground v.1.15,2013-05-10 11:28:00,
2013-05-10 06:33:00,50.8,49.1,29.90,NNE,23,0.0,0.0,94,0.00,,,0.04,Wunderground v.1.15,2013-05-10 11:33:00,
2013-05-10 06:38:00,50.8,48.8,29.90,North,355,0.0,0.0,93,0.00,,,0.04,Wunderground v.1.15,2013-05-10 11:38:00,
2013-05-10 06:43:00,50.7,49.0,29.90,North,5,0.0,0.0,94,0.00,,,0.04,Wunderground v.1.15,2013-05-10 11:43:00,
2013-05-10 06:48:00,50.5,48.8,29.91,North,360,0.0,0.0,94,0.00,,,0.04,Wunderground v.1.15,2013-05-10 11:48:00,
2013-05-10 06:53:00,50.4,48.7,29.91,North,355,0.0,0.0,94,0.00,,,0.04,Wunderground v.1.15,2013-05-10 11:53:00,
2013-05-10 06:58:00,50.0,48.6,29.91,North,5,0.0,0.0,95,0.00,,,0.04,Wunderground v.1.15,2013-05-10 11:58:00,
2013-05-10 07:03:00,49.7,48.0,29.91,North,9,0.0,0.0,94,0.00,,,0.04,Wunderground v.1.15,2013-05-10 12:03:00,
2013-05-10 07:08:00,49.6,48.2,29.91,NNE,15,0.0,0.0,95,0.00,,,0.04,Wunderground v.1.15,2013-05-10 12:08:00,
2013-05-10 07:13:00,49.6,47.9,29.92,North,9,0.0,0.0,94,0.00,,,0.04,Wunderground v.1.15,2013-05-10 12:13:00,
2013-05-10 07:18:00,49.7,48.0,29.92,North,355,0.0,0.0,94,0.00,,,0.04,Wunderground v.1.15,2013-05-10 12:18:00,
2013-05-10 07:23:00,49.6,47.9,29.92,North,360,0.0,0.0,94,0.00,,,0.04,Wunderground v.1.15,2013-05-10 12:23:00,
2013-05-10 07:28:00,49.5,48.1,29.92,North,360,0.0,0.0,95,0.00,,,0.04,Wunderground v.1.15,2013-05-10 12:28:00,
2013-05-10 07:33:00,49.4,48.0,29.92,North,5,0.0,0.0,95,0.00,,,0.04,Wunderground v.1.15,2013-05-10 12:33:00,
2013-05-10 07:38:00,49.4,48.0,29.92,North,5,0.0,0.0,95,0.00,,,0.04,Wunderground v.1.15,2013-05-10 12:38:00,
2013-05-10 07:43:00,49.5,48.1,29.92,North,5,0.0,0.0,95,0.00,,,0.04,Wunderground v.1.15,2013-05-10 12:43:00,
2013-05-10 07:48:00,49.3,47.6,29.92,North,355,0.0,0.0,94,0.00,,,0.04,Wunderground v.1.15,2013-05-10 12:48:00,
2013-05-10 07:53:00,49.2,47.5,29.92,NNE,26,0.0,0.0,94,0.00,,,0.04,Wunderground v.1.15,2013-05-10 12:53:00,
2013-05-10 07:58:00,49.0,47.3,29.93,North,5,0.0,0.0,94,0.00,,,0.04,Wunderground v.1.15,2013-05-10 12:58:00,
2013-05-10 08:03:00,48.9,47.2,29.93,North,5,0.0,0.0,94,0.00,,,0.04,Wunderground v.1.15,2013-05-10 13:03:00,
2013-05-10 08:08:00,48.9,47.2,29.93,North,355,0.0,0.0,94,0.00,,,0.04,Wunderground v.1.15,2013-05-10 13:08:00,
2013-05-10 08:13:00,48.8,47.2,29.93,North,360,0.0,0.0,94,0.00,,,0.04,Wunderground v.1.15,2013-05-10 13:13:00,
2013-05-10 08:18:00,48.8,47.2,29.93,NNE,15,0.0,0.0,94,0.00,,,0.04,Wunderground v.1.15,2013-05-10 13:18:00,
2013-05-10 08:23:00,48.8,47.2,29.93,North,5,0.0,0.0,94,0.00,,,0.04,Wunderground v.1.15,2013-05-10 13:23:00,
2013-05-10 08:28:00,48.8,47.2,29.93,North,360,0.0,0.0,94,0.00,,,0.04,Wunderground v.1.15,2013-05-10 13:28:00,
2013-05-10 08:33:00,48.8,47.2,29.93,North,5,0.0,0.0,94,0.00,,,0.04,Wunderground v.1.15,2013-05-10 13:33:00,
2013-05-10 08:38:00,48.7,47.1,29.93,North,5,0.0,0.0,94,0.00,,,0.04,Wunderground v.1.15,2013-05-10 13:38:00,
2013-05-10 08:43:00,48.7,47.1,29.94,North,5,0.0,0.0,94,0.00,,,0.04,Wunderground v.1.15,2013-05-10 13:43:00,
2013-05-10 08:48:00,48.7,47.1,29.94,NNE,13,0.0,0.0,94,0.00,,,0.04,Wunderground v.1.15,2013-05-10 13:48:00,
2013-05-10 08:53:00,48.8,47.2,29.94,NNE,19,0.0,0.0,94,0.00,,,0.04,Wunderground v.1.15,2013-05-10 13:53:00,
2013-05-10 08:58:00,48.8,46.9,29.94,North,360,0.0,0.0,93,0.00,,,0.04,Wunderground v.1.15,2013-05-10 13:58:00,
2013-05-10 09:04:00,48.8,47.2,29.94,North,360,0.0,0.0,94,0.00,,,0.04,Wunderground v.1.15,2013-05-10 14:04:00,
2013-05-10 09:09:00,48.6,46.7,29.94,North,360,0.0,0.0,93,0.00,,,0.04,Wunderground v.1.15,2013-05-10 14:09:00,
2013-05-10 09:14:00,48.7,46.8,29.94,North,9,0.0,0.0,93,0.00,,,0.04,Wunderground v.1.15,2013-05-10 14:14:00,
2013-05-10 09:19:00,48.8,46.9,29.94,NNE,12,0.0,0.0,93,0.00,,,0.04,Wunderground v.1.15,2013-05-10 14:19:00,
2013-05-10 09:24:00,49.1,47.2,29.94,North,360,0.0,0.0,93,0.00,,,0.04,Wunderground v.1.15,2013-05-10 14:24:00,
2013-05-10 09:29:00,49.6,47.7,29.94,North,5,0.0,0.0,93,0.00,,,0.04,Wunderground v.1.15,2013-05-10 14:29:00,
2013-05-10 09:34:00,49.8,47.6,29.94,North,5,0.0,0.0,92,0.00,,,0.04,Wunderground v.1.15,2013-05-10 14:34:00,
2013-05-10 09:39:00,49.3,46.8,29.94,North,5,0.0,0.0,91,0.00,,,0.04,Wunderground v.1.15,2013-05-10 14:39:00,
2013-05-10 09:44:00,48.9,46.7,29.94,North,355,0.0,0.0,92,0.00,,,0.04,Wunderground v.1.15,2013-05-10 14:44:00,
2013-05-10 09:49:00,48.8,46.9,29.95,North,350,0.0,0.0,93,0.00,,,0.04,Wunderground v.1.15,2013-05-10 14:49:00,
2013-05-10 09:54:00,48.8,46.9,29.95,North,360,0.0,0.0,93,0.00,,,0.04,Wunderground v.1.15,2013-05-10 14:54:00,
2013-05-10 09:59:00,48.8,46.9,29.95,North,5,0.0,0.0,93,0.00,,,0.04,Wunderground v.1.15,2013-05-10 14:59:00,
2013-05-10 10:04:00,48.8,46.9,29.95,North,350,0.0,0.0,93,0.00,,,0.04,Wunderground v.1.15,2013-05-10 15:04:00,
2013-05-10 10:09:00,48.7,46.5,29.95,North,5,0.0,0.0,92,0.00,,,0.04,Wunderground v.1.15,2013-05-10 15:09:00,
2013-05-10 10:14:00,48.7,46.8,29.95,North,360,0.0,0.0,93,0.00,,,0.04,Wunderground v.1.15,2013-05-10 15:14:00,
2013-05-10 10:19:00,49.0,47.1,29.95,North,5,0.0,0.0,93,0.00,,,0.04,Wunderground v.1.15,2013-05-10 15:19:00,
2013-05-10 10:24:00,49.2,47.0,29.95,North,9,0.0,0.0,92,0.00,,,0.04,Wunderground v.1.15,2013-05-10 15:24:00,
2013-05-10 10:29:00,49.6,47.4,29.95,NNE,15,0.0,0.0,92,0.00,,,0.04,Wunderground v.1.15,2013-05-10 15:29:00,
2013-05-10 10:34:00,49.5,47.3,29.95,NNE,13,0.0,0.0,92,0.00,,,0.04,Wunderground v.1.15,2013-05-10 15:34:00,
2013-05-10 10:39:00,49.6,47.4,29.95,North,351,0.0,0.0,92,0.00,,,0.04,Wunderground v.1.15,2013-05-10 15:39:00,
2013-05-10 10:44:00,49.7,47.2,29.95,North,355,0.0,0.0,91,0.00,,,0.04,Wunderground v.1.15,2013-05-10 15:44:00,
2013-05-10 10:49:00,49.8,47.3,29.96,North,360,0.0,0.0,91,0.00,,,0.04,Wunderground v.1.15,2013-05-10 15:49:00,
2013-05-10 10:54:00,49.8,47.3,29.96,North,11,0.0,0.0,91,0.00,,,0.04,Wunderground v.1.15,2013-05-10 15:54:00,
2013-05-10 10:59:00,50.0,47.5,29.96,North,360,0.0,0.0,91,0.00,,,0.04,Wunderground v.1.15,2013-05-10 15:59:00,
2013-05-10 11:04:00,50.2,48.0,29.96,North,5,0.0,0.0,92,0.00,,,0.04,Wunderground v.1.15,2013-05-10 16:04:00,
2013-05-10 11:09:00,50.4,47.9,29.97,North,360,0.0,0.0,91,0.00,,,0.04,Wunderground v.1.15,2013-05-10 16:09:00,
2013-05-10 11:14:00,50.4,47.6,29.97,North,355,0.0,0.0,90,0.00,,,0.04,Wunderground v.1.15,2013-05-10 16:14:00,
2013-05-10 11:19:00,50.6,47.8,29.97,North,360,0.0,0.0,90,0.00,,,0.04,Wunderground v.1.15,2013-05-10 16:19:00,
2013-05-10 11:24:00,50.4,47.6,29.98,North,5,0.0,0.0,90,0.00,,,0.04,Wunderground v.1.15,2013-05-10 16:24:00,
2013-05-10 11:29:00,50.4,47.6,29.97,NNW,348,0.0,0.0,90,0.00,,,0.04,Wunderground v.1.15,2013-05-10 16:29:00,
2013-05-10 11:34:00,50.4,47.6,29.97,North,9,0.0,0.0,90,0.00,,,0.04,Wunderground v.1.15,2013-05-10 16:34:00,
2013-05-10 11:39:00,50.9,48.4,29.97,North,9,0.0,0.0,91,0.00,,,0.04,Wunderground v.1.15,2013-05-10 16:39:00,
2013-05-10 11:44:00,51.4,48.6,29.97,North,5,0.0,0.0,90,0.00,,,0.04,Wunderground v.1.15,2013-05-10 16:44:00,
2013-05-10 11:49:00,51.2,48.4,29.97,North,360,0.0,0.0,90,0.00,,,0.04,Wunderground v.1.15,2013-05-10 16:49:00,
2013-05-10 11:54:00,50.7,48.2,29.97,North,355,0.0,0.0,91,0.00,,,0.04,Wunderground v.1.15,2013-05-10 16:54:00,
2013-05-10 11:59:00,50.5,48.0,29.97,North,351,0.0,0.0,91,0.00,,,0.04,Wunderground v.1.15,2013-05-10 16:59:00,
2013-05-10 12:04:00,50.6,48.1,29.97,North,355,0.0,0.0,91,0.00,,,0.04,Wunderground v.1.15,2013-05-10 17:04:00,
2013-05-10 12:09:00,51.2,48.7,29.97,North,355,0.0,0.0,91,0.00,,,0.04,Wunderground v.1.15,2013-05-10 17:09:00,
2013-05-10 12:14:00,51.8,49.5,29.97,NNE,27,0.0,0.0,92,0.00,,,0.04,Wunderground v.1.15,2013-05-10 17:14:00,
2013-05-10 12:19:00,51.7,49.2,29.97,North,5,0.0,0.0,91,0.00,,,0.04,Wunderground v.1.15,2013-05-10 17:19:00,
2013-05-10 12:24:00,51.9,49.4,29.97,North,10,0.0,0.0,91,0.00,,,0.04,Wunderground v.1.15,2013-05-10 17:24:00,
2013-05-10 12:29:00,52.1,49.3,29.97,North,11,0.0,0.0,90,0.00,,,0.04,Wunderground v.1.15,2013-05-10 17:29:00,
2013-05-10 12:35:00,52.1,49.3,29.97,North,5,0.0,0.0,90,0.00,,,0.04,Wunderground v.1.15,2013-05-10 17:35:00,
2013-05-10 12:40:00,51.8,49.0,29.97,North,5,0.0,0.0,90,0.00,,,0.04,Wunderground v.1.15,2013-05-10 17:40:00,
2013-05-10 12:45:00,51.7,48.9,29.97,North,360,0.0,0.0,90,0.00,,,0.04,Wunderground v.1.15,2013-05-10 17:45:00,
2013-05-10 12:50:00,51.8,49.3,29.97,North,355,0.0,0.0,91,0.00,,,0.04,Wunderground v.1.15,2013-05-10 17:50:00,
2013-05-10 12:55:00,52.1,49.6,29.97,North,355,0.0,0.0,91,0.00,,,0.04,Wunderground v.1.15,2013-05-10 17:55:00,
2013-05-10 13:00:00,52.4,49.6,29.97,North,5,0.0,0.0,90,0.00,,,0.04,Wunderground v.1.15,2013-05-10 18:00:00,
2013-05-10 13:05:00,52.6,49.8,29.98,North,5,0.0,0.0,90,0.00,,,0.04,Wunderground v.1.15,2013-05-10 18:05:00,
2013-05-10 13:10:00,52.4,49.6,29.98,North,360,0.0,0.0,90,0.00,,,0.04,Wunderground v.1.15,2013-05-10 18:10:00,
2013-05-10 13:15:00,52.5,49.4,29.97,North,5,0.0,0.0,89,0.00,,,0.04,Wunderground v.1.15,2013-05-10 18:15:00,
2013-05-10 13:20:00,52.6,49.8,29.97,North,355,0.0,0.0,90,0.00,,,0.04,Wunderground v.1.15,2013-05-10 18:20:00,
2013-05-10 13:25:00,52.6,49.4,29.97,North,355,0.0,0.0,89,0.00,,,0.04,Wunderground v.1.15,2013-05-10 18:25:00,
2013-05-10 13:30:00,52.8,49.9,29.97,North,360,0.0,0.0,90,0.00,,,0.04,Wunderground v.1.15,2013-05-10 18:30:00,
2013-05-10 13:35:00,53.3,50.4,29.97,North,360,0.0,0.0,90,0.00,,,0.04,Wunderground v.1.15,2013-05-10 18:35:00,
2013-05-10 13:40:00,53.7,50.5,29.97,North,5,0.0,0.0,89,0.00,,,0.04,Wunderground v.1.15,2013-05-10 18:40:00,
2013-05-10 13:45:00,53.9,50.7,29.97,North,5,0.0,0.0,89,0.00,,,0.04,Wunderground v.1.15,2013-05-10 18:45:00,
2013-05-10 13:50:00,54.0,50.8,29.97,NNW,345,0.0,0.0,89,0.00,,,0.04,Wunderground v.1.15,2013-05-10 18:50:00,
2013-05-10 13:55:00,54.4,51.2,29.97,North,360,0.0,0.0,89,0.00,,,0.04,Wunderground v.1.15,2013-05-10 18:55:00,
2013-05-10 14:00:00,54.6,51.4,29.97,NNW,346,0.0,0.0,89,0.00,,,0.04,Wunderground v.1.15,2013-05-10 19:00:00,
2013-05-10 14:05:00,54.8,51.6,29.97,NNW,346,0.0,0.0,89,0.00,,,0.04,Wunderground v.1.15,2013-05-10 19:05:00,
2013-05-10 14:10:00,55.0,51.5,29.97,North,5,0.0,0.0,88,0.00,,,0.04,Wunderground v.1.15,2013-05-10 19:10:00,
2013-05-10 14:15:00,55.2,51.4,29.97,North,5,0.0,0.0,87,0.00,,,0.04,Wunderground v.1.15,2013-05-10 19:15:00,
2013-05-10 14:20:00,55.5,52.0,29.97,North,360,0.0,0.0,88,0.00,,,0.04,Wunderground v.1.15,2013-05-10 19:20:00,
2013-05-10 14:25:00,55.6,51.8,29.97,NNE,17,0.0,0.0,87,0.00,,,0.04,Wunderground v.1.15,2013-05-10 19:25:00,
2013-05-10 14:30:00,56.2,52.4,29.97,North,355,0.0,0.0,87,0.00,,,0.04,Wunderground v.1.15,2013-05-10 19:30:00,
2013-05-10 14:35:00,56.7,52.9,29.97,NNE,18,0.0,0.0,87,0.00,,,0.04,Wunderground v.1.15,2013-05-10 19:35:00,
2013-05-10 14:40:00,56.8,52.3,29.97,North,5,0.0,0.0,85,0.00,,,0.04,Wunderground v.1.15,2013-05-10 19:40:00,
2013-05-10 14:45:00,57.0,52.9,29.97,North,351,0.0,0.0,86,0.00,,,0.04,Wunderground v.1.15,2013-05-10 19:45:00,
2013-05-10 14:50:00,57.6,53.4,29.96,North,5,0.0,0.0,86,0.00,,,0.04,Wunderground v.1.15,2013-05-10 19:50:00,
2013-05-10 14:55:00,58.1,53.3,29.96,North,5,0.0,0.0,84,0.00,,,0.04,Wunderground v.1.15,2013-05-10 19:55:00,
2013-05-10 15:02:00,58.8,53.6,29.96,NNE,15,0.0,0.0,83,0.00,,,0.04,Wunderground v.1.15,2013-05-10 20:02:00,
2013-05-10 15:08:00,58.8,53.3,29.96,North,360,0.0,0.0,82,0.00,,,0.04,Wunderground v.1.15,2013-05-10 20:08:00,
2013-05-10 15:13:00,59.3,53.8,29.96,North,9,0.0,0.0,82,0.00,,,0.04,Wunderground v.1.15,2013-05-10 20:13:00,
2013-05-10 15:18:00,59.8,54.3,29.96,North,5,0.0,0.0,82,0.00,,,0.04,Wunderground v.1.15,2013-05-10 20:18:00,
2013-05-10 15:23:00,59.7,54.5,29.96,NNE,13,0.0,0.0,83,0.00,,,0.04,Wunderground v.1.15,2013-05-10 20:23:00,
2013-05-10 15:28:00,59.8,54.6,29.96,NNE,12,0.0,0.0,83,0.00,,,0.04,Wunderground v.1.15,2013-05-10 20:28:00,
2013-05-10 15:33:00,59.8,54.6,29.96,NNE,30,0.0,0.0,83,0.00,,,0.04,Wunderground v.1.15,2013-05-10 20:33:00,
2013-05-10 15:38:00,59.9,54.1,29.96,North,355,0.0,0.0,81,0.00,,,0.04,Wunderground v.1.15,2013-05-10 20:38:00,
2013-05-10 15:43:00,59.9,53.7,29.96,NNE,13,0.0,0.0,80,0.00,,,0.04,Wunderground v.1.15,2013-05-10 20:43:00,
2013-05-10 15:48:00,59.7,53.9,29.95,North,360,0.0,0.0,81,0.00,,,0.04,Wunderground v.1.15,2013-05-10 20:48:00,
2013-05-10 15:53:00,59.8,54.0,29.95,NNE,13,0.0,0.0,81,0.00,,,0.04,Wunderground v.1.15,2013-05-10 20:53:00,
2013-05-10 15:58:00,59.8,54.0,29.95,North,11,0.0,0.0,81,0.00,,,0.04,Wunderground v.1.15,2013-05-10 20:58:00,
2013-05-10 16:03:00,59.9,53.7,29.95,North,5,0.0,0.0,80,0.00,,,0.04,Wunderground v.1.15,2013-05-10 21:03:00,
2013-05-10 16:08:00,59.9,53.4,29.95,NNE,13,0.0,0.0,79,0.00,,,0.04,Wunderground v.1.15,2013-05-10 21:08:00,
2013-05-10 16:13:00,60.0,53.8,29.95,NNE,18,0.0,0.0,80,0.00,,,0.04,Wunderground v.1.15,2013-05-10 21:13:00,
2013-05-10 16:18:00,60.1,53.6,29.95,North,11,0.0,0.0,79,0.00,,,0.04,Wunderground v.1.15,2013-05-10 21:18:00,
2013-05-10 16:23:00,60.1,53.2,29.94,NNE,22,0.0,0.0,78,0.00,,,0.04,Wunderground v.1.15,2013-05-10 21:23:00,
2013-05-10 16:28:00,60.4,54.5,29.95,North,11,0.0,0.0,81,0.00,,,0.04,Wunderground v.1.15,2013-05-10 21:28:00,
2013-05-10 16:33:00,60.5,54.0,29.95,NNE,12,0.0,0.0,79,0.00,,,0.04,Wunderground v.1.15,2013-05-10 21:33:00,
2013-05-10 16:38:00,60.6,53.7,29.95,North,5,0.0,0.0,78,0.00,,,0.04,Wunderground v.1.15,2013-05-10 21:38:00,
2013-05-10 16:43:00,60.6,53.7,29.95,NNE,16,0.0,0.0,78,0.00,,,0.04,Wunderground v.1.15,2013-05-10 21:43:00,
2013-05-10 16:48:00,60.7,53.1,29.94,NNE,12,0.0,0.0,76,0.00,,,0.04,Wunderground v.1.15,2013-05-10 21:48:00,
2013-05-10 16:53:00,60.7,53.4,29.94,NNE,19,0.0,0.0,77,0.00,,,0.04,Wunderground v.1.15,2013-05-10 21:53:00,
2013-05-10 16:58:00,60.8,53.5,29.94,North,5,0.0,0.0,77,0.00,,,0.04,Wunderground v.1.15,2013-05-10 21:58:00,
2013-05-10 17:03:00,61.3,53.7,29.94,North,351,0.0,0.0,76,0.00,,,0.04,Wunderground v.1.15,2013-05-10 22:03:00,
2013-05-10 17:08:00,62.0,55.4,29.95,North,360,0.0,0.0,79,0.00,,,0.04,Wunderground v.1.15,2013-05-10 22:08:00,
2013-05-10 17:13:00,62.6,55.3,29.94,North,360,0.0,0.0,77,0.00,,,0.04,Wunderground v.1.15,2013-05-10 22:13:00,
2013-05-10 17:18:00,62.4,54.0,29.94,North,360,0.0,0.0,74,0.00,,,0.04,Wunderground v.1.15,2013-05-10 22:18:00,
2013-05-10 17:23:00,62.6,54.9,29.94,North,360,0.0,0.0,76,0.00,,,0.04,Wunderground v.1.15,2013-05-10 22:23:00,
2013-05-10 17:28:00,62.8,54.8,29.94,North,360,0.0,0.0,75,0.00,,,0.04,Wunderground v.1.15,2013-05-10 22:28:00,
2013-05-10 17:33:00,62.6,54.6,29.94,North,360,0.0,0.0,75,0.00,,,0.04,Wunderground v.1.15,2013-05-10 22:33:00,
2013-05-10 17:38:00,62.5,54.5,29.94,North,360,0.0,0.0,75,0.00,,,0.04,Wunderground v.1.15,2013-05-10 22:38:00,
2013-05-10 17:44:00,62.3,54.3,29.94,North,5,0.0,0.0,75,0.00,,,0.04,Wunderground v.1.15,2013-05-10 22:44:00,
2013-05-10 17:49:00,62.1,54.1,29.94,North,5,0.0,0.0,75,0.00,,,0.04,Wunderground v.1.15,2013-05-10 22:49:00,
2013-05-10 17:54:00,61.7,54.1,29.94,North,5,0.0,0.0,76,0.00,,,0.04,Wunderground v.1.15,2013-05-10 22:54:00,
2013-05-10 17:59:00,61.3,53.3,29.94,North,5,0.0,0.0,75,0.00,,,0.04,Wunderground v.1.15,2013-05-10 22:59:00,
2013-05-10 18:04:00,61.2,53.9,29.93,North,5,0.0,0.0,77,0.00,,,0.04,Wunderground v.1.15,2013-05-10 23:04:00,
2013-05-10 18:09:00,61.2,54.3,29.93,North,5,0.0,0.0,78,0.00,,,0.04,Wunderground v.1.15,2013-05-10 23:09:00,
2013-05-10 18:14:00,61.3,54.0,29.93,North,5,0.0,0.0,77,0.00,,,0.04,Wunderground v.1.15,2013-05-10 23:14:00,
2013-05-10 18:19:00,61.3,54.4,29.94,North,5,0.0,0.0,78,0.00,,,0.04,Wunderground v.1.15,2013-05-10 23:19:00,
2013-05-10 18:24:00,61.2,53.9,29.94,North,5,0.0,0.0,77,0.00,,,0.04,Wunderground v.1.15,2013-05-10 23:24:00,
2013-05-10 18:29:00,61.2,54.3,29.94,North,5,0.0,0.0,78,0.00,,,0.04,Wunderground v.1.15,2013-05-10 23:29:00,
2013-05-10 18:34:00,61.3,54.4,29.94,North,5,0.0,0.0,78,0.00,,,0.04,Wunderground v.1.15,2013-05-10 23:34:00,
2013-05-10 18:39:00,61.3,54.0,29.93,North,5,0.0,0.0,77,0.00,,,0.04,Wunderground v.1.15,2013-05-10 23:39:00,
2013-05-10 18:44:00,61.4,54.1,29.93,North,5,0.0,0.0,77,0.00,,,0.04,Wunderground v.1.15,2013-05-10 23:44:00,
2013-05-10 18:49:00,61.4,53.8,29.93,North,5,0.0,0.0,76,0.00,,,0.04,Wunderground v.1.15,2013-05-10 23:49:00,
2013-05-10 18:54:00,61.4,53.8,29.93,North,5,0.0,0.0,76,0.00,,,0.04,Wunderground v.1.15,2013-05-10 23:54:00,
2013-05-10 18:59:00,61.5,53.9,29.93,North,5,0.0,0.0,76,0.00,,,0.04,Wunderground v.1.15,2013-05-10 23:59:00,
2013-05-10 19:04:00,61.7,53.7,29.93,North,5,0.0,0.0,75,0.00,,,0.04,Wunderground v.1.15,2013-05-11 00:04:00,
2013-05-10 19:09:00,61.8,53.4,29.93,North,5,0.0,0.0,74,0.00,,,0.04,Wunderground v.1.15,2013-05-11 00:09:00,
2013-05-10 19:14:00,62.0,53.6,29.93,North,5,0.0,0.0,74,0.00,,,0.04,Wunderground v.1.15,2013-05-11 00:14:00,
2013-05-10 19:19:00,62.2,53.8,29.93,North,5,0.0,0.0,74,0.00,,,0.04,Wunderground v.1.15,2013-05-11 00:19:00,
2013-05-10 19:24:00,62.3,53.5,29.93,North,5,0.0,0.0,73,0.00,,,0.04,Wunderground v.1.15,2013-05-11 00:24:00,
2013-05-10 19:29:00,62.4,53.3,29.93,North,5,0.0,0.0,72,0.00,,,0.04,Wunderground v.1.15,2013-05-11 00:29:00,
2013-05-10 19:34:00,62.5,53.3,29.93,North,5,0.0,0.0,72,0.00,,,0.04,Wunderground v.1.15,2013-05-11 00:34:00,
2013-05-10 19:39:00,62.6,53.4,29.93,North,5,0.0,0.0,72,0.00,,,0.04,Wunderground v.1.15,2013-05-11 00:39:00,
2013-05-10 19:44:00,62.7,52.8,29.93,North,5,0.0,0.0,70,0.00,,,0.04,Wunderground v.1.15,2013-05-11 00:44:00,
2013-05-10 19:49:00,62.5,53.3,29.93,North,5,0.0,0.0,72,0.00,,,0.04,Wunderground v.1.15,2013-05-11 00:49:00,
2013-05-10 19:54:00,62.3,53.5,29.93,North,5,0.0,0.0,73,0.00,,,0.04,Wunderground v.1.15,2013-05-11 00:54:00,
2013-05-10 19:59:00,62.1,53.7,29.93,North,5,0.0,0.0,74,0.00,,,0.04,Wunderground v.1.15,2013-05-11 00:59:00,
2013-05-10 20:04:00,61.5,53.5,29.93,North,5,0.0,0.0,75,0.00,,,0.04,Wunderground v.1.15,2013-05-11 01:04:00,
2013-05-10 20:09:00,61.0,53.0,29.93,North,5,0.0,0.0,75,0.00,,,0.04,Wunderground v.1.15,2013-05-11 01:09:00,
2013-05-10 20:14:00,60.5,52.5,29.93,North,5,0.0,0.0,75,0.00,,,0.04,Wunderground v.1.15,2013-05-11 01:14:00,
2013-05-10 20:19:00,60.0,52.1,29.93,North,5,0.0,0.0,75,0.00,,,0.04,Wunderground v.1.15,2013-05-11 01:19:00,
2013-05-10 20:24:00,59.5,51.9,29.94,North,5,0.0,0.0,76,0.00,,,0.04,Wunderground v.1.15,2013-05-11 01:24:00,
2013-05-10 20:30:00,59.1,51.9,29.94,North,5,0.0,0.0,77,0.00,,,0.04,Wunderground v.1.15,2013-05-11 01:30:00,
2013-05-10 20:35:00,58.7,51.5,29.94,North,5,0.0,0.0,77,0.00,,,0.04,Wunderground v.1.15,2013-05-11 01:35:00,
2013-05-10 20:40:00,58.3,51.8,29.94,North,5,0.0,0.0,79,0.00,,,0.04,Wunderground v.1.15,2013-05-11 01:40:00,
2013-05-10 20:45:00,57.8,52.0,29.94,North,5,0.0,0.0,81,0.00,,,0.04,Wunderground v.1.15,2013-05-11 01:45:00,
2013-05-10 20:50:00,57.4,51.9,29.95,North,5,0.0,0.0,82,0.00,,,0.04,Wunderground v.1.15,2013-05-11 01:50:00,
2013-05-10 20:55:00,57.1,52.0,29.95,North,5,0.0,0.0,83,0.00,,,0.04,Wunderground v.1.15,2013-05-11 01:55:00,
2013-05-10 21:00:00,56.8,52.0,29.94,North,5,0.0,0.0,84,0.00,,,0.04,Wunderground v.1.15,2013-05-11 02:00:00,
2013-05-10 21:05:00,56.4,51.9,29.95,North,5,0.0,0.0,85,0.00,,,0.04,Wunderground v.1.15,2013-05-11 02:05:00,
2013-05-10 21:10:00,56.0,51.6,29.94,North,5,0.0,0.0,85,0.00,,,0.04,Wunderground v.1.15,2013-05-11 02:10:00,
2013-05-10 21:15:00,55.6,51.5,29.94,North,5,0.0,0.0,86,0.00,,,0.04,Wunderground v.1.15,2013-05-11 02:15:00,
2013-05-10 21:20:00,55.2,51.4,29.95,North,5,0.0,0.0,87,0.00,,,0.04,Wunderground v.1.15,2013-05-11 02:20:00,
2013-05-10 21:25:00,55.0,51.5,29.95,North,5,0.0,0.0,88,0.00,,,0.04,Wunderground v.1.15,2013-05-11 02:25:00,
2013-05-10 21:30:00,54.9,51.4,29.95,North,5,0.0,0.0,88,0.00,,,0.04,Wunderground v.1.15,2013-05-11 02:30:00,
2013-05-10 21:35:00,54.7,51.5,29.95,North,5,0.0,0.0,89,0.00,,,0.04,Wunderground v.1.15,2013-05-11 02:35:00,
2013-05-10 21:40:00,54.6,51.4,29.96,North,5,0.0,0.0,89,0.00,,,0.04,Wunderground v.1.15,2013-05-11 02:40:00,
2013-05-10 21:45:00,54.4,51.2,29.96,North,5,0.0,0.0,89,0.00,,,0.04,Wunderground v.1.15,2013-05-11 02:45:00,
2013-05-10 21:50:00,54.4,51.2,29.96,North,5,0.0,0.0,89,0.00,,,0.04,Wunderground v.1.15,2013-05-11 02:50:00,
2013-05-10 21:55:00,54.2,51.3,29.95,North,5,0.0,0.0,90,0.00,,,0.04,Wunderground v.1.15,2013-05-11 02:55:00,
2013-05-10 22:00:00,54.0,51.1,29.96,North,5,0.0,0.0,90,0.00,,,0.04,Wunderground v.1.15,2013-05-11 03:00:00,
2013-05-10 22:05:00,53.9,51.0,29.96,North,5,0.0,0.0,90,0.00,,,0.04,Wunderground v.1.15,2013-05-11 03:05:00,
2013-05-10 22:10:00,53.9,51.0,29.96,North,5,0.0,0.0,90,0.00,,,0.04,Wunderground v.1.15,2013-05-11 03:10:00,
2013-05-10 22:15:00,53.8,50.9,29.96,North,5,0.0,0.0,90,0.00,,,0.04,Wunderground v.1.15,2013-05-11 03:15:00,
2013-05-10 22:20:00,53.8,50.9,29.96,North,5,0.0,0.0,90,0.00,,,0.04,Wunderground v.1.15,2013-05-11 03:20:00,
2013-05-10 22:25:00,53.7,50.8,29.96,North,5,0.0,0.0,90,0.00,,,0.04,Wunderground v.1.15,2013-05-11 03:25:00,
2013-05-10 22:30:00,53.6,50.7,29.96,North,5,0.0,0.0,90,0.00,,,0.04,Wunderground v.1.15,2013-05-11 03:30:00,
2013-05-10 22:35:00,53.5,50.6,29.96,North,5,0.0,0.0,90,0.00,,,0.04,Wunderground v.1.15,2013-05-11 03:35:00,
2013-05-10 22:40:00,53.4,50.5,29.96,North,5,0.0,0.0,90,0.00,,,0.04,Wunderground v.1.15,2013-05-11 03:40:00,
2013-05-10 22:45:00,53.2,50.3,29.96,North,5,0.0,0.0,90,0.00,,,0.04,Wunderground v.1.15,2013-05-11 03:45:00,
2013-05-10 22:52:00,53.0,50.4,29.96,North,5,0.0,0.0,91,0.00,,,0.04,Wunderground v.1.15,2013-05-11 03:52:00,
2013-05-10 22:57:00,52.9,50.3,29.96,North,5,0.0,0.0,91,0.00,,,0.04,Wunderground v.1.15,2013-05-11 03:57:00,
2013-05-10 23:02:00,52.9,50.3,29.95,South,178,0.0,0.0,91,0.00,,,0.04,Wunderground v.1.15,2013-05-11 04:02:00,
2013-05-10 23:03:00,52.9,50.3,29.95,South,178,0.0,0.0,91,0.00,,,0.04,Wunderground v.1.15,2013-05-11 04:03:00,
2013-05-10 23:08:00,52.8,50.5,29.95,South,180,0.0,0.0,92,0.00,,,0.04,Wunderground v.1.15,2013-05-11 04:08:00,
2013-05-10 23:13:00,52.6,50.0,29.95,South,181,0.0,0.0,91,0.00,,,0.04,Wunderground v.1.15,2013-05-11 04:13:00,
2013-05-10 23:18:00,52.3,49.8,29.95,South,181,0.0,0.0,91,0.00,,,0.04,Wunderground v.1.15,2013-05-11 04:18:00,
2013-05-10 23:23:00,52.1,49.8,29.95,South,181,0.0,0.0,92,0.00,,,0.04,Wunderground v.1.15,2013-05-11 04:23:00,
2013-05-10 23:28:00,51.9,49.6,29.96,South,181,0.0,0.0,92,0.00,,,0.04,Wunderground v.1.15,2013-05-11 04:28:00,
2013-05-10 23:33:00,51.7,49.5,29.95,South,181,0.0,0.0,92,0.00,,,0.04,Wunderground v.1.15,2013-05-11 04:33:00,
2013-05-10 23:38:00,51.6,49.4,29.95,South,181,0.0,0.0,92,0.00,,,0.04,Wunderground v.1.15,2013-05-11 04:38:00,
2013-05-10 23:43:00,51.5,49.3,29.95,South,181,0.0,0.0,92,0.00,,,0.04,Wunderground v.1.15,2013-05-11 04:43:00,
2013-05-10 23:48:00,51.3,49.3,29.95,South,181,0.0,0.0,93,0.00,,,0.04,Wunderground v.1.15,2013-05-11 04:48:00,
2013-05-10 23:53:00,51.1,49.1,29.95,South,181,0.0,0.0,93,0.00,,,0.04,Wunderground v.1.15,2013-05-11 04:53:00,